This is the latest recevied weather packets stored in our database for station/object G4KVI. If no packets are shown the sender has not sent any weather packets the latest 10 day(s).
| Time | Temp. | Humidity | Pressure | Rain* | Wind** | Luminosity | Snow |
|---|---|---|---|---|---|---|---|
| 1787599503 | 20° C | 49% | 1016.5 hPa | 0 mm | - | 0 W/m² | - |
| 1787599203 | 20° C | 48% | 1016.6 hPa | 0 mm | - | 1 W/m² | - |
| 1787598903 | 20° C | 48% | 1016.5 hPa | 0 mm | - | 2 W/m² | - |
| 1787598603 | 20° C | 48% | 1016.5 hPa | 0 mm | - | 3 W/m² | - |
| 1787598303 | 20° C | 47% | 1016.4 hPa | 0 mm | - | 5 W/m² | - |
| 1787598003 | 20.56° C | 47% | 1016.3 hPa | 0 mm | - | 7 W/m² | - |
| 1787597705 | 20.56° C | 46% | 1016.3 hPa | 0 mm | - | 10 W/m² | - |
| 1787597405 | 20.56° C | 46% | 1016.1 hPa | 0 mm | - | 13 W/m² | - |
| 1787597105 | 20.56° C | 45% | 1016.1 hPa | 0 mm | - | 17 W/m² | - |
| 1787596805 | 21.11° C | 44% | 1016.2 hPa | 0 mm | - | 21 W/m² | - |
| 1787596505 | 21.11° C | 44% | 1016.1 hPa | 0 mm | - | 27 W/m² | - |
| 1787596205 | 21.11° C | 44% | 1016.2 hPa | 0 mm | - | 33 W/m² | - |
| 1787595905 | 21.11° C | 43% | 1016.2 hPa | 0 mm | - | 37 W/m² | - |
| 1787595605 | 21.67° C | 43% | 1015.9 hPa | 0 mm | - | 44 W/m² | - |
| 1787595305 | 21.67° C | 43% | 1016 hPa | 0 mm | - | 51 W/m² | - |
| 1787595005 | 21.67° C | 43% | 1016 hPa | 0 mm | - | 57 W/m² | - |
| 1787594705 | 21.67° C | 42% | 1016.2 hPa | 0 mm | - | 66 W/m² | - |
| 1787594405 | 21.67° C | 42% | 1016.2 hPa | 0 mm | - | 55 W/m² | - |
| 1787594105 | 21.67° C | 43% | 1016.3 hPa | 0 mm | - | 59 W/m² | - |
| 1787593805 | 21.67° C | 43% | 1016.2 hPa | 0 mm | - | 52 W/m² | - |
| 1787593505 | 21.67° C | 43% | 1016.1 hPa | 0 mm | - | 59 W/m² | - |
| 1787593205 | 21.67° C | 43% | 1016.2 hPa | 0 mm | - | 96 W/m² | - |
| 1787592905 | 22.22° C | 42% | 1016.2 hPa | 0 mm | - | 109 W/m² | - |
| 1787592605 | 22.22° C | 42% | 1016.3 hPa | 0 mm | - | 123 W/m² | - |
| 1787592305 | 22.22° C | 42% | 1016.3 hPa | 0 mm | - | 126 W/m² | - |
* Rain latest hour (hover to see other rain measurements)
** Current wind speed in m/s (hover to see current wind gust speed)